Latest Coastal Weather Observations for Horn Island

IDQ60701

Issued at 5:45 pm EST Sunday 26 October 2014 (issued every 10 minutes, with the page automatically refreshed every 10 minutes)

About coastal observations | Map of coastal stations | Coastal observations for QLD | Marine services | Other Formats
Station Details ID: 027058 Name: HORN ISLAND Lat: -10.58 Lon: 142.29 Height: 4.0 m
Data from the previous 72 hours. | See also: Recent months at Horn Island
Date/Time
EST
Temp

°C
Wind Pressure Rain
since 9am
mm
Weather Cloud Vis
km
Sea
Height
m
Swell
Dir
 
Speed
knots
Gust
knots
hPa Trend Height
m
Period
s
Dir
26/05:30pm 26.9 ESE 14 19 1011.2 - 0.0 - - 10 - - - -
26/05:00pm 27.5 E 14 21 1011.0 - 0.0 - - 10 - - - -
26/04:30pm 27.9 E 17 22 1010.9 - 0.0 - - 10 - - - -
26/04:00pm 28.2 E 17 22 1010.8 - 0.0 - - 10 - - - -
26/03:30pm 28.2 E 17 24 1010.9 - 0.0 - - 10 - - - -
26/03:00pm 28.9 E 17 23 1011.1 - 0.0 - - 10 - - - -
26/02:30pm 28.2 E 18 24 1011.4 - 0.0 - - 10 - - - -
26/02:00pm 29.0 E 16 23 1011.8 - 0.0 - - 10 - - - -
26/01:30pm 28.7 E 18 22 1012.1 - 0.0 - - 10 - - - -
26/01:00pm 28.8 E 16 21 1012.4 - 0.0 - - 10 - - - -
26/12:30pm 28.7 E 16 22 1012.9 - 0.0 - - 10 - - - -
26/12:00pm 28.6 E 14 20 1013.2 - 0.0 - - 10 - - - -
26/11:30am 29.3 E 15 21 1013.6 - 0.0 - - 10 - - - -
26/11:00am 28.7 E 15 21 1013.8 - 0.0 - - 10 - - - -
26/10:30am 28.5 E 17 23 1014.0 - 0.0 - - 10 - - - -
26/10:00am 28.6 E 14 21 1014.3 - 0.0 - - 10 - - - -
26/09:30am 28.0 E 15 20 1014.6 - 0.0 - - 10 - - - -
26/09:00am 27.5 E 15 21 1014.5 - 0.0 - - 10 - - - -
26/08:30am 27.4 ESE 14 19 1014.5 - 0.0 - - 10 - - - -
26/08:00am 26.9 ESE 13 18 1014.3 - 0.0 - Partly cloudy 10 - - - -
26/07:30am 26.0 ESE 14 18 1014.2 - 0.0 - Partly cloudy 10 - - - -
26/07:00am 25.5 ESE 12 16 1013.9 - 0.0 - Partly cloudy 10 - - - -
26/06:30am 25.0 ESE 10 15 1013.8 - 0.0 - Partly cloudy 10 - - - -
26/06:00am 24.8 ESE 10 15 1013.2 - 0.0 - Mostly cloudy 10 - - - -
26/05:30am 24.9 ESE 11 16 1013.0 - 0.0 - Partly cloudy 10 - - - -
26/05:00am 25.0 ESE 11 17 1012.9 - 0.0 - Partly cloudy 10 - - - -
26/04:30am 25.2 ESE 11 16 1012.7 - 0.0 - Partly cloudy 10 - - - -
26/04:00am 25.2 SE 12 18 1012.8 - 0.0 - Partly cloudy 10 - - - -
26/03:30am 25.4 ESE 14 18 1012.6 - 0.0 - Partly cloudy 10 - - - -
26/03:00am 25.5 ESE 12 17 1012.8 - 0.0 - Cloudy 10 - - - -
26/02:30am 25.5 ESE 12 17 1013.0 - 0.0 - Partly cloudy 10 - - - -
26/02:00am 25.4 ESE 14 19 1013.4 - 0.0 - Partly cloudy 10 - - - -
26/01:30am 25.1 ESE 13 18 1013.5 - 0.0 - Partly cloudy 10 - - - -
26/01:00am 25.2 ESE 13 18 1013.7 - 0.0 - Partly cloudy 10 - - - -
26/12:30am 25.3 ESE 12 16 1014.2 - 0.0 - Partly cloudy 10 - - - -
26/12:00am 25.3 ESE 12 17 1014.7 - 0.0 - Mostly clear 10 - - - -
 
Date/Time
EST
Temp

°C
Wind Pressure Rain
since 9am
mm
Weather Cloud Vis
km
Sea
Height
m
Swell
Dir
 
Speed
knots
Gust
knots
hPa Trend Height
m
Period
s
Dir
25/11:30pm 25.3 ESE 12 17 1015.0 - 0.0 - - 10 - - - -
25/11:00pm 25.4 ESE 14 19 1015.2 - 0.0 - Partly cloudy 10 - - - -
25/10:30pm 25.4 ESE 14 19 1015.1 - 0.0 - Partly cloudy 10 - - - -
25/10:00pm 25.4 ESE 14 21 1015.1 - 0.0 - - 10 - - - -
25/09:30pm 25.4 ESE 14 19 1014.7 - 0.0 - - 10 - - - -
25/09:00pm 25.5 ESE 15 20 1014.4 - 0.0 - - 10 - - - -
25/08:30pm 25.6 ESE 14 18 1014.2 - 0.0 - - 10 - - - -
25/08:00pm 25.6 ESE 14 19 1013.8 - 0.0 - - 10 - - - -
25/07:30pm 25.7 ESE 15 20 1013.6 - 0.0 - - 10 - - - -
25/07:00pm 25.8 ESE 15 20 1013.2 - 0.0 - Partly cloudy 10 - - - -
25/06:30pm 26.0 ESE 15 20 1012.8 - 0.0 - - 10 - - - -
25/06:00pm 26.5 ESE 15 22 1012.4 - 0.0 - - 10 - - - -
25/05:30pm 27.3 ESE 15 22 1012.1 - 0.0 - - 10 - - - -
25/05:00pm 27.6 ESE 17 23 1012.0 - 0.0 - - 10 - - - -
25/04:30pm 27.9 ESE 18 24 1011.7 - 0.0 - - 10 - - - -
25/04:00pm 29.0 ESE 17 23 1011.9 - 0.0 - - 10 - - - -
25/03:30pm 28.4 E 19 27 1011.9 - 0.0 - - 10 - - - -
25/03:00pm 29.0 E 20 25 1012.1 - 0.0 - - 10 - - - -
25/02:39pm 28.8 E 19 29 1012.3 - 0.0 - - 10 - - - -
25/02:30pm 29.3 ESE 19 27 1012.3 - 0.0 - - 10 - - - -
25/02:00pm 29.6 E 18 25 1012.6 - 0.0 - - 10 - - - -
25/01:30pm 28.9 E 18 27 1012.9 - 0.0 - - 10 - - - -
25/01:28pm 29.2 E 17 27 1013.0 - 0.0 - - 10 - - - -
25/01:00pm 29.6 E 19 26 1013.3 - 0.0 - - 10 - - - -
25/12:30pm 29.4 E 19 25 1013.5 - 0.0 - - 10 - - - -
25/12:00pm 29.2 E 21 28 1013.9 - 0.0 - - 10 - - - -
25/11:37am 29.6 E 19 29 1014.2 - 0.0 - - 10 - - - -
25/11:30am 28.9 ESE 21 29 1014.3 - 0.0 - - 10 - - - -
25/11:00am 29.0 E 20 27 1014.6 - 0.0 - - 10 - - - -
25/10:30am 28.9 ESE 19 25 1014.8 - 0.0 - - 10 - - - -
25/10:11am 29.0 E 16 27 1015.0 - 0.0 - - 10 - - - -
25/10:00am 28.8 ESE 19 26 1015.1 - 0.0 - - 10 - - - -
25/09:30am 28.6 E 19 25 1015.2 - 0.0 - - 10 - - - -
25/09:00am 27.8 E 17 24 1015.4 - 0.0 - Mostly clear 10 - - - -
25/08:30am 27.4 ESE 16 21 1015.3 - 0.0 - Partly cloudy 10 - - - -
25/08:00am 27.0 ESE 16 22 1015.2 - 0.0 - Partly cloudy 10 - - - -
25/07:30am 26.0 ESE 13 17 1014.8 - 0.0 - Partly cloudy 10 - - - -
25/07:00am 25.6 ESE 13 16 1014.3 - 0.0 - Partly cloudy 10 - - - -
25/06:30am 25.4 ESE 14 20 1013.8 - 0.0 - Partly cloudy 10 - - - -
25/06:00am 25.3 ESE 14 19 1013.4 - 0.0 - Mostly clear 10 - - - -
25/05:30am 25.3 ESE 14 20 1013.2 - 0.0 - Partly cloudy 10 - - - -
25/05:00am 25.2 ESE 12 17 1013.1 - 0.0 - Partly cloudy 10 - - - -
25/04:30am 25.1 ESE 13 17 1012.9 - 0.0 - Partly cloudy 10 - - - -
25/04:00am 25.1 ESE 13 17 1013.0 - 0.0 - Partly cloudy 10 - - - -
25/03:30am 25.2 ESE 12 17 1013.0 - 0.0 - Partly cloudy 10 - - - -
25/03:00am 25.3 ESE 16 21 1013.0 - 0.0 - Mostly clear 10 - - - -
25/02:30am 25.4 ESE 15 22 1013.3 - 0.0 - Partly cloudy 10 - - - -
25/02:00am 25.3 ESE 16 23 1013.6 - 0.0 - - 10 - - - -
25/01:30am 25.3 ESE 13 19 1013.8 - 0.0 - Partly cloudy 10 - - - -
25/01:00am 25.3 ESE 15 23 1014.0 - 0.0 - Partly cloudy 10 - - - -
25/12:30am 25.3 ESE 15 22 1014.3 - 0.0 - - 10 - - - -
25/12:00am 25.3 ESE 13 19 1014.6 - 0.0 - Mostly clear 10 - - - -
 
Date/Time
EST
Temp

°C
Wind Pressure Rain
since 9am
mm
Weather Cloud Vis
km
Sea
Height
m
Swell
Dir
 
Speed
knots
Gust
knots
hPa Trend Height
m
Period
s
Dir
24/11:30pm 25.4 ESE 16 20 1014.8 - 0.0 - - 10 - - - -
24/11:00pm 25.6 ESE 15 21 1015.0 - 0.0 - - 10 - - - -
24/10:30pm 25.7 ESE 15 22 1014.9 - 0.0 - Partly cloudy 10 - - - -
24/10:00pm 25.6 ESE 15 22 1014.7 - 0.0 - Partly cloudy 10 - - - -
24/09:30pm 25.7 ESE 15 19 1014.5 - 0.0 - Partly cloudy 10 - - - -
24/09:00pm 25.7 ESE 16 23 1014.2 - 0.0 - Mostly cloudy 10 - - - -
24/08:30pm 25.5 ESE 15 21 1013.7 - 0.0 - Partly cloudy 10 - - - -
24/08:00pm 25.5 ESE 16 24 1013.5 - 0.0 - Partly cloudy 10 - - - -
24/07:30pm 25.7 ESE 16 23 1013.1 - 0.0 - Partly cloudy 10 - - - -
24/07:00pm 25.5 ESE 17 25 1012.8 - 0.0 - Partly cloudy 10 - - - -
24/06:30pm 25.9 ESE 17 22 1012.6 - 0.0 - Partly cloudy 10 - - - -
24/06:00pm 26.5 ESE 16 23 1012.4 - 0.0 - Mostly clear 10 - - - -
24/05:30pm 27.1 ESE 19 25 1011.8 - 0.0 - Partly cloudy 10 - - - -
24/05:00pm 27.4 ESE 17 23 1011.7 - 0.0 - Partly cloudy 10 - - - -
24/04:30pm 28.0 ESE 17 24 1011.6 - 0.0 - - 10 - - - -
24/04:00pm 28.3 E 18 23 1011.5 - 0.0 - - 10 - - - -
24/03:30pm 28.5 E 19 26 1011.7 - 0.0 - - 10 - - - -
24/03:00pm 29.3 E 18 25 1011.7 - 0.0 - - 10 - - - -
24/02:30pm 28.6 E 20 26 1011.8 - 0.0 - Partly cloudy 10 - - - -
24/02:00pm 29.8 ESE 20 27 1012.1 - 0.0 - Partly cloudy 10 - - - -
24/01:30pm 29.6 E 21 27 1012.3 - 0.0 - - 10 - - - -
24/01:00pm 29.5 E 20 26 1012.9 - 0.0 - - 10 - - - -
24/12:44pm 29.5 E 18 28 1013.1 - 0.0 - - 10 - - - -
24/12:30pm 29.5 E 19 26 1013.4 - 0.0 - - 10 - - - -
24/12:00pm 29.1 E 21 27 1013.9 - 0.0 - - 10 - - - -
24/11:30am 30.2 ESE 20 27 1014.4 - 0.0 - - 10 - - - -
24/11:00am 29.1 E 19 26 1014.7 - 0.0 - - 9 - - - -
24/10:30am 28.7 ESE 17 25 1015.0 - 0.0 - - 10 - - - -
24/10:00am 28.7 ESE 19 29 1015.4 - 0.0 - Partly cloudy 10 - - - -
24/09:55am 28.1 ESE 18 29 1015.4 - 0.0 - Partly cloudy 10 - - - -
24/09:30am 29.0 ESE 19 26 1015.5 - 0.0 - - 10 - - - -
24/09:00am 27.9 ESE 19 24 1015.5 - 0.0 - Mostly clear 10 - - - -
24/08:30am 27.5 ESE 19 25 1015.4 - 0.0 - Partly cloudy 10 - - - -
24/08:00am 26.7 ESE 18 27 1015.2 - 0.0 - Partly cloudy 10 - - - -
24/07:30am 26.4 ESE 18 23 1014.9 - 0.0 - Partly cloudy 10 - - - -
24/07:00am 25.8 ESE 16 22 1014.5 - 0.0 - - 10 - - - -
24/06:30am 25.4 ESE 16 21 1014.2 - 0.0 - Partly cloudy 10 - - - -
24/06:18am 25.3 ESE 15 26 1014.1 - 0.0 - Partly cloudy 10 - - - -
24/06:00am 25.3 ESE 16 22 1013.9 - 0.0 - Cloudy 10 - - - -
24/05:30am 25.5 ESE 15 22 1013.6 - 0.0 - Partly cloudy 10 - - - -
24/05:00am 25.3 ESE 15 23 1013.3 - 0.0 - Partly cloudy 10 - - - -
24/04:30am 25.5 ESE 16 22 1013.0 - 0.0 - Partly cloudy 10 - - - -
24/04:00am 25.5 ESE 15 20 1012.7 - 0.0 - Partly cloudy 10 - - - -
24/03:30am 25.4 ESE 18 23 1012.5 - 0.0 - Partly cloudy 10 - - - -
24/03:00am 25.5 ESE 17 23 1012.4 - 0.0 - Mostly clear 10 - - - -
24/02:30am 25.4 ESE 17 24 1012.7 - 0.0 - Partly cloudy 10 - - - -
24/02:00am 25.3 ESE 15 22 1012.9 - 0.0 - Partly cloudy 10 - - - -
24/01:30am 25.5 ESE 14 19 1013.3 - 0.0 - Partly cloudy 10 - - - -
24/01:00am 25.7 ESE 15 21 1013.6 - 0.0 - Partly cloudy 10 - - - -
24/12:30am 25.7 ESE 16 23 1013.8 - 0.0 - Partly cloudy 10 - - - -
24/12:00am 25.4 ESE 15 19 1014.1 - 0.0 - Mostly cloudy 10 - - - -
 
Date/Time
EST
Temp

°C
Wind Pressure Rain
since 9am
mm
Weather Cloud Vis
km
Sea
Height
m
Swell
Dir
 
Speed
knots
Gust
knots
hPa Trend Height
m
Period
s
Dir
23/11:30pm 25.4 ESE 16 21 1014.4 - 0.0 - - 10 - - - -
23/11:00pm 25.5 ESE 17 23 1014.7 - 0.0 - Partly cloudy 10 - - - -
23/10:30pm 25.6 ESE 17 22 1014.8 - 0.0 - Partly cloudy 10 - - - -
23/10:00pm 25.7 ESE 17 25 1014.6 - 0.0 - Partly cloudy 10 - - - -
23/09:30pm 25.6 ESE 16 22 1014.4 - 0.0 - - 10 - - - -
23/09:00pm 25.6 ESE 15 21 1014.2 - 0.0 - Mostly clear 10 - - - -
23/08:30pm 25.6 ESE 16 22 1013.9 - 0.0 - Partly cloudy 10 - - - -
23/08:00pm 25.6 ESE 15 20 1013.6 - 0.0 - - 10 - - - -
23/07:30pm 25.6 ESE 16 22 1013.4 - 0.0 - - 10 - - - -
23/07:00pm 25.7 ESE 17 24 1013.2 - 0.0 - Partly cloudy 10 - - - -
23/06:30pm 25.8 ESE 18 26 1012.8 - 0.0 - - 10 - - - -
23/06:00pm 26.6 ESE 19 24 1012.3 - 0.0 - - 10 - - - -

Other Formats:

Comma delimited format used in spreadsheet applications
http://www.bom.gov.au/fwo/IDQ60701/IDQ60701.94174.axf

JavaScript Object Notation format (JSON) in row-major order
http://www.bom.gov.au/fwo/IDQ60701/IDQ60701.94174.json